N6591R KBLI-KBFI

Flight info

Callsign N6591R
Flight time 0h 25m
Altitude 10000
Route CVV ISOGE
Aircraft F406/L-SDFR/C

Departure

Time 2026-04-29 00:08
Airport Bellingham International Airport (KBLI)

Arrival

Time 2026-04-29 00:33
Airport King County International Airport - Boeing Field (KBFI)
Time Latitude Longitude Altitude Speed Heading
2026-04-28 23:43 48.79352 -122.53207 158 ft 0 kts 104°
2026-04-28 23:48 48.79352 -122.53208 158 ft 0 kts 104°
2026-04-28 23:52 48.79353 -122.53201 158 ft 1 kts 59°
2026-04-28 23:52 48.79361 -122.53198 158 ft 2 kts 343°
2026-04-28 23:52 48.79375 -122.53252 157 ft 9 kts 271°
2026-04-28 23:52 48.79360 -122.53364 158 ft 12 kts 245°
2026-04-28 23:53 48.79351 -122.53442 158 ft 4 kts 320°
2026-04-28 23:53 48.79351 -122.53443 158 ft 0 kts 327°
2026-04-28 23:57 48.79352 -122.53444 158 ft 0 kts 325°
2026-04-29 00:02 48.79373 -122.53466 157 ft 12 kts 325°
2026-04-29 00:02 48.79462 -122.53576 157 ft 19 kts 319°
2026-04-29 00:03 48.79539 -122.53582 157 ft 10 kts 347°
2026-04-29 00:03 48.79629 -122.53589 156 ft 16 kts
2026-04-29 00:03 48.79746 -122.53588 156 ft 18 kts 354°
2026-04-29 00:03 48.79861 -122.53580 156 ft 15 kts 358°
2026-04-29 00:04 48.79978 -122.53587 155 ft 15 kts
2026-04-29 00:04 48.80081 -122.53615 155 ft 16 kts 313°
2026-04-29 00:04 48.80121 -122.53632 155 ft 0 kts
2026-04-29 00:05 48.80129 -122.53631 155 ft 4 kts
2026-04-29 00:05 48.80151 -122.53628 155 ft 8 kts
2026-04-29 00:06 48.80177 -122.53639 155 ft 3 kts 313°
2026-04-29 00:06 48.80178 -122.53641 155 ft 0 kts 289°
2026-04-29 00:06 48.80179 -122.53646 155 ft 2 kts 284°
2026-04-29 00:06 48.80178 -122.53679 155 ft 14 kts 267°
2026-04-29 00:07 48.80169 -122.53758 155 ft 10 kts 227°
2026-04-29 00:07 48.80114 -122.53763 155 ft 40 kts 174°
2026-04-29 00:07 48.79865 -122.53756 157 ft 99 kts 180°
2026-04-29 00:07 48.79309 -122.53756 326 ft 130 kts 180°
2026-04-29 00:08 48.78323 -122.53767 791 ft 153 kts 181°
2026-04-29 00:08 48.77283 -122.54175 1469 ft 157 kts 208°
2026-04-29 00:08 48.76295 -122.54990 2131 ft 164 kts 206°
2026-04-29 00:08 48.75256 -122.55697 2500 ft 158 kts 206°
2026-04-29 00:09 48.74269 -122.56407 2780 ft 155 kts 208°
2026-04-29 00:09 48.73268 -122.57135 2919 ft 168 kts 206°
2026-04-29 00:09 48.72144 -122.57872 3098 ft 181 kts 202°
2026-04-29 00:09 48.70938 -122.58498 3285 ft 186 kts 197°
2026-04-29 00:10 48.69675 -122.59000 3470 ft 188 kts 194°
2026-04-29 00:10 48.68409 -122.59370 3644 ft 187 kts 188°
2026-04-29 00:10 48.67111 -122.59603 3828 ft 188 kts 185°
2026-04-29 00:10 48.65806 -122.59704 4003 ft 188 kts 182°
2026-04-29 00:11 48.64579 -122.60247 4185 ft 187 kts 219°
2026-04-29 00:11 48.63548 -122.61394 4593 ft 183 kts 209°
2026-04-29 00:11 48.61022 -122.62379 4993 ft 196 kts 189°
2026-04-29 00:12 48.59659 -122.62580 5102 ft 197 kts 177°
2026-04-29 00:12 48.58320 -122.62277 5570 ft 191 kts 169°
2026-04-29 00:12 48.57037 -122.61818 6200 ft 188 kts 165°
2026-04-29 00:12 48.55781 -122.61240 6857 ft 190 kts 163°
2026-04-29 00:13 48.54482 -122.60930 7473 ft 191 kts 191°
2026-04-29 00:13 48.53159 -122.61152 8102 ft 195 kts 176°
2026-04-29 00:13 48.51788 -122.60927 8643 ft 201 kts 173°
2026-04-29 00:13 48.50392 -122.60605 9189 ft 206 kts 173°
2026-04-29 00:14 48.48965 -122.60842 9753 ft 209 kts 197°
2026-04-29 00:14 48.47590 -122.61592 10269 ft 213 kts 202°
2026-04-29 00:14 48.46269 -122.62420 10189 ft 205 kts 204°
2026-04-29 00:14 48.44890 -122.63334 10030 ft 227 kts 204°
2026-04-29 00:15 48.43415 -122.64334 9965 ft 234 kts 205°
2026-04-29 00:15 48.41917 -122.65341 9985 ft 237 kts 204°
2026-04-29 00:15 48.40410 -122.66357 9996 ft 238 kts 204°
2026-04-29 00:15 48.38861 -122.67253 10002 ft 239 kts 198°
2026-04-29 00:16 48.37256 -122.67918 10007 ft 239 kts 194°
2026-04-29 00:16 48.35654 -122.68563 10005 ft 238 kts 197°
2026-04-29 00:16 48.34079 -122.69355 10002 ft 238 kts 199°
2026-04-29 00:16 48.32521 -122.70188 10007 ft 238 kts 200°
2026-04-29 00:17 48.30967 -122.71048 10005 ft 238 kts 200°
2026-04-29 00:17 48.29358 -122.71575 10007 ft 238 kts 187°
2026-04-29 00:17 48.27715 -122.71800 10005 ft 238 kts 183°
2026-04-29 00:17 48.26062 -122.71957 10004 ft 237 kts 183°
2026-04-29 00:18 48.24435 -122.72099 10004 ft 238 kts 183°
2026-04-29 00:18 48.22801 -122.72152 10000 ft 237 kts 168°
2026-04-29 00:18 48.21242 -122.71389 10012 ft 237 kts 158°
2026-04-29 00:18 48.19712 -122.70446 10008 ft 237 kts 155°
2026-04-29 00:19 48.18207 -122.69454 10001 ft 237 kts 155°
2026-04-29 00:19 48.16704 -122.68442 10000 ft 237 kts 155°
2026-04-29 00:19 48.15161 -122.67572 10004 ft 238 kts 161°
2026-04-29 00:19 48.13591 -122.66775 10002 ft 239 kts 160°
2026-04-29 00:20 48.12023 -122.65952 10004 ft 239 kts 160°
2026-04-29 00:20 48.10457 -122.65139 10002 ft 239 kts 160°
2026-04-29 00:20 48.08888 -122.64325 9999 ft 239 kts 160°
2026-04-29 00:20 48.07320 -122.63510 9994 ft 239 kts 160°
2026-04-29 00:21 48.05739 -122.62689 9795 ft 244 kts 160°
2026-04-29 00:21 48.04119 -122.61851 9413 ft 248 kts 160°
2026-04-29 00:21 48.02485 -122.61004 9046 ft 242 kts 160°
2026-04-29 00:21 48.00987 -122.60229 8698 ft 219 kts 161°
2026-04-29 00:22 47.99571 -122.59495 8358 ft 213 kts 161°
2026-04-29 00:22 47.98180 -122.58776 8025 ft 211 kts 161°
2026-04-29 00:22 47.96798 -122.58062 7685 ft 210 kts 161°
2026-04-29 00:22 47.95428 -122.57355 7357 ft 208 kts 161°
2026-04-29 00:23 47.94168 -122.56704 6955 ft 172 kts 161°
2026-04-29 00:23 47.93087 -122.56146 6528 ft 160 kts 161°
2026-04-29 00:23 47.92045 -122.55610 6087 ft 157 kts 161°
2026-04-29 00:23 47.91017 -122.55080 5650 ft 156 kts 161°
2026-04-29 00:24 47.89995 -122.54552 5214 ft 155 kts 161°
2026-04-29 00:24 47.88990 -122.54034 4775 ft 152 kts 161°
2026-04-29 00:24 47.88000 -122.53524 4352 ft 149 kts 161°
2026-04-29 00:24 47.87039 -122.52999 3961 ft 146 kts 162°
2026-04-29 00:25 47.86075 -122.52540 3592 ft 145 kts 162°
2026-04-29 00:25 47.85130 -122.52057 3205 ft 143 kts 161°
2026-04-29 00:25 47.84154 -122.51545 2885 ft 175 kts 160°
2026-04-29 00:25 47.82879 -122.50893 2573 ft 204 kts 161°
2026-04-29 00:26 47.81538 -122.50205 2483 ft 202 kts 161°
2026-04-29 00:26 47.80230 -122.49532 2391 ft 197 kts 161°
2026-04-29 00:26 47.78942 -122.48872 2316 ft 196 kts 161°
2026-04-29 00:26 47.77655 -122.48212 2246 ft 195 kts 161°
2026-04-29 00:27 47.76374 -122.47555 2198 ft 193 kts 161°
2026-04-29 00:27 47.75108 -122.46906 2202 ft 192 kts 161°
2026-04-29 00:27 47.73844 -122.46257 2203 ft 192 kts 162°
2026-04-29 00:27 47.72591 -122.45609 2202 ft 190 kts 162°
2026-04-29 00:28 47.71338 -122.44979 2192 ft 190 kts 162°
2026-04-29 00:28 47.70091 -122.44341 2196 ft 190 kts 162°
2026-04-29 00:28 47.68841 -122.43698 2206 ft 190 kts 162°
2026-04-29 00:28 47.67638 -122.42887 2200 ft 191 kts 150°
2026-04-29 00:29 47.66546 -122.41873 2196 ft 174 kts 148°
2026-04-29 00:29 47.65563 -122.40905 2201 ft 168 kts 148°
2026-04-29 00:29 47.64564 -122.40027 2208 ft 167 kts 153°
2026-04-29 00:29 47.63592 -122.39221 2211 ft 142 kts 152°
2026-04-29 00:30 47.62776 -122.38539 1952 ft 132 kts 153°
2026-04-29 00:30 47.62297 -122.38129 1915 ft 106 kts 152°
2026-04-29 00:30 47.61269 -122.37196 1958 ft 167 kts 149°
2026-04-29 00:30 47.60369 -122.36379 1628 ft 130 kts 154°
2026-04-29 00:31 47.59501 -122.35753 1219 ft 160 kts 155°
2026-04-29 00:31 47.58488 -122.34975 1036 ft 144 kts 152°
2026-04-29 00:31 47.57773 -122.34357 854 ft 120 kts 150°
2026-04-29 00:31 47.56994 -122.33654 834 ft 133 kts 148°
2026-04-29 00:32 47.56311 -122.33046 651 ft 100 kts 150°
2026-04-29 00:32 47.55680 -122.32484 705 ft 113 kts 151°
2026-04-29 00:32 47.55102 -122.32022 348 ft 90 kts 152°
2026-04-29 00:32 47.54492 -122.31501 147 ft 93 kts 152°
2026-04-29 00:33 47.53935 -122.31034 36 ft 83 kts 152°
2026-04-29 00:33 47.53544 -122.30707 18 ft 43 kts 149°
2026-04-29 00:33 47.53400 -122.30563 19 ft 10 kts 114°
2026-04-29 00:33 47.53395 -122.30336 24 ft 18 kts 53°
2026-04-29 00:34 47.53538 -122.30370 22 ft 30 kts 12°
2026-04-29 00:34 47.53604 -122.30375 22 ft 0 kts 315°